EHI
14 15 16 16 15 13 9 7 5 5 5 4 5 6 6 6 6 4 3 4 5 6 6 6 5 4 4 5 6 8 10 10 7 5 5 5 5 4 4 3 1 0 0
13 15 17 16 14 12 11 10 8 8 8 7 7 7 7 6 5 3 3 3 3 3 3 2 2 2 2 3 4 5 6 8 8 6 6 5 5 5 5 3 1 0 0
12 15 18 18 14 13 13 13 13 13 12 12 11 10 9 7 4 2 2 2 1 0 0 0 0 0 1 2 2 2 3 5 7 8 8 7 6 5 5 3 3 3 2
14 16 18 17 15 14 13 14 15 15 15 15 13 11 10 8 4 2 2 2 1 1 2 1 0 0 0 1 1 2 2 2 3 6 7 7 5 5 4 4 5 5 3
17 16 15 14 14 13 11 11 12 12 13 13 12 11 10 8 4 2 3 3 3 4 5 4 2 0 0 0 1 2 2 1 1 3 4 4 4 4 4 5 5 4 3
18 16 14 12 11 10 9 8 8 8 10 11 11 11 10 6 2 1 2 4 5 8 8 7 4 2 0 0 0 1 1 1 2 2 2 2 1 1 2 3 4 3 2
18 16 13 10 9 8 7 7 7 8 10 11 12 12 9 4 1 0 1 2 4 7 7 7 6 3 1 1 1 0 0 1 1 1 1 1 0 0 0 1 2 3 3
17 15 12 10 8 7 7 8 9 11 12 12 12 10 7 3 1 0 0 1 2 3 4 5 5 4 2 2 1 1 1 1 0 0 1 1 0 0 0 0 1 2 2
17 16 13 10 8 8 9 9 10 11 12 11 11 9 6 3 1 0 0 0 0 1 2 4 4 3 1 1 2 2 2 2 1 0 0 0 0 0 0 0 1 1 1
17 17 15 12 10 9 10 10 9 9 10 10 10 8 6 3 1 0 0 0 0 1 3 4 2 1 0 0 2 3 3 3 2 2 2 1 0 0 0 1 1 2 1
19 17 15 12 10 9 10 10 9 9 10 10 9 8 6 4 2 1 0 0 1 2 4 3 1 0 0 0 1 2 3 3 3 3 4 4 2 2 2 2 3 3 4
22 19 16 13 10 9 9 9 9 10 11 10 8 6 4 3 2 1 0 0 1 2 3 2 1 0 0 0 1 1 1 1 3 4 4 4 3 4 5 5 5 6 6
23 22 19 15 11 9 9 9 10 11 11 9 7 4 2 1 1 2 1 0 1 2 2 1 0 0 0 0 0 0 0 1 3 3 3 3 2 3 5 6 7 8 9
21 21 19 16 13 11 9 8 10 10 9 8 6 4 3 2 3 4 4 2 1 1 1 1 1 1 1 1 1 0 0 1 2 3 3 2 1 1 2 4 5 7 7
17 17 15 14 13 11 9 8 7 6 5 4 5 4 5 5 5 5 5 4 3 2 2 2 2 2 2 2 2 1 0 1 1 2 1 1 0 0 1 1 2 3 3
13 13 13 12 11 10 10 8 5 3 1 1 2 3 4 4 4 3 3 3 3 2 3 3 3 3 3 3 3 2 1 0 0 0 0 0 0 0 0 0 0 0 0
10 10 11 10 10 10 9 8 6 3 1 1 0 1 1 1 1 1 1 1 1 1 2 3 3 3 3 3 3 2 1 0 0 0 0 0 0 0 0 0 0 0 0
6 7 8 8 9 9 8 7 6 5 4 3 1 0 0 0 0 0 0 0 1 1 2 3 3 3 3 3 3 2 1 0 0 0 0 0 0 0 0 0 0 0 0
3 3 5 7 7 8 7 6 6 6 7 5 3 1 1 1 1 1 0 1 2 3 3 3 3 2 3 3 3 1 0 0 0 0 0 0 0 0 0 0 0 0 0
2 2 3 5 6 7 6 5 5 5 5 4 2 2 2 2 2 2 1 1 3 3 3 3 3 3 3 3 2 1 0 0 0 0 0 0 0 0 0 0 0 0 0
2 2 2 3 4 5 4 4 3 2 1 1 1 2 2 3 3 3 3 3 3 3 3 3 3 3 2 2 1 0 0 0 0 0 0 0 0 0 0 0 0 0 0
2 2 2 2 2 2 2 3 2 1 0 0 0 1 1 2 3 3 3 3 3 3 3 3 2 1 1 1 0 0 0 0 0 0 0 0 0 0 0 0 0 0 0
1 1 1 1 1 0 1 2 2 1 0 0 1 1 1 2 3 3 3 3 3 3 3 1 1 0 0 0 0 0 0 0 0 0 0 0 0 0 0 0 0 0 0
0 0 0 0 0 0 0 1 1 0 0 0 1 2 3 3 3 3 3 3 3 3 2 1 0 0 0 0 0 0 0 0 0 0 0 0 0 0 0 0 0 0 0
0 0 0 0 0 0 0 0 0 0 0 0 1 3 3 3 3 3 3 3 3 2 1 0 0 0 0 0 0 0 0 0 0 0 0 0 0 0 0 0 0 0 0
0 0 0 0 0 0 0 0 0 0 0 0 1 2 3 3 3 3 3 3 3 1 0 0 0 0 0 0 0 0 0 0 0 0 0 0 0 0 0 0 0 0 0
Wind_Speed
4 4 3 2 2 2 2 1 1 0 0 1 1 1 1 1 1 1 2 2 3 3 3 3 3 3 3 3 3 3 4 4 4 3 1 1 1 2 1 2 3 3 4
5 4 3 2 2 2 2 1 1 1 1 0 1 1 1 1 1 2 2 2 2 2 3 3 3 2 3 4 3 3 3 3 4 4 2 1 2 2 2 3 3 3 3
5 5 4 3 3 2 1 1 1 1 1 0 0 0 0 1 1 2 2 2 2 2 2 2 3 3 3 3 4 3 3 3 3 4 3 2 2 2 3 3 3 3 4
5 5 4 3 3 2 2 2 1 1 1 0 0 0 0 1 1 2 1 2 2 2 2 2 3 3 3 4 3 3 3 3 3 3 3 2 2 2 3 3 3 2 3
6 5 4 4 3 3 2 2 2 1 1 0 0 0 0 0 1 2 2 2 2 2 2 1 1 2 3 4 4 4 3 3 3 3 3 2 2 2 3 3 2 2 2
5 5 4 3 3 3 3 2 2 1 1 1 0 0 1 2 5 4 4 3 2 2 2 2 1 1 1 2 2 4 4 4 3 3 3 2 3 3 3 3 2 2 2
6 5 5 4 3 3 3 3 2 1 1 1 0 0 0 3 3 2 3 3 2 2 2 2 2 1 2 2 2 4 4 4 4 4 4 4 3 3 3 3 3 3 3
6 5 5 4 4 3 3 2 2 1 1 0 0 0 0 2 2 1 3 3 2 2 2 2 2 2 2 4 3 2 2 2 3 3 3 4 3 2 3 4 3 3 3
6 5 5 5 4 4 3 3 2 1 1 1 1 1 1 1 2 1 4 2 1 2 2 2 3 2 2 4 4 3 2 2 2 2 2 3 3 3 3 3 2 3 3
6 5 5 4 4 4 3 3 2 2 2 2 1 1 1 1 1 1 4 3 2 2 2 2 1 2 2 4 4 3 3 3 3 2 3 5 5 4 4 4 3 3 3
6 5 5 4 4 4 3 3 3 3 2 2 2 2 2 2 2 2 3 4 3 3 2 1 1 2 1 3 5 4 4 5 5 4 4 3 3 3 3 3 3 4 3
5 5 5 4 4 3 3 3 3 3 4 3 3 3 2 2 2 2 2 3 6 5 4 2 2 0 2 4 4 3 5 7 5 3 3 3 2 2 2 3 3 4 4
5 5 4 4 4 3 4 4 4 4 4 3 3 2 2 2 2 5 4 4 5 4 3 3 4 4 5 5 5 6 6 5 3 3 3 3 2 2 3 3 4 5 5
5 5 4 4 4 4 3 4 4 4 4 3 3 2 2 2 2 2 2 3 4 4 3 2 5 7 7 4 4 5 5 3 3 3 3 3 3 3 3 3 4 4 4
5 5 4 4 3 3 3 2 3 3 2 3 3 3 3 2 1 2 3 3 3 3 4 4 4 3 4 3 3 2 3 3 3 3 3 4 3 3 3 3 4 4 4
5 5 4 4 3 3 3 2 0 2 1 2 3 4 3 1 1 1 3 4 4 4 4 5 4 4 4 3 3 3 3 2 3 3 3 4 4 4 3 3 4 4 5
4 4 4 3 3 4 4 4 3 3 3 4 5 5 5 4 3 4 4 4 5 4 5 5 4 4 4 4 4 3 3 2 3 3 4 4 4 4 4 4 4 4 5
5 4 4 4 4 4 4 4 4 4 4 4 5 8 8 8 7 6 5 4 5 5 5 5 4 4 4 4 4 3 3 3 3 4 4 4 4 4 4 4 4 5 5
5 4 3 3 4 4 4 4 4 5 4 4 3 4 8 8 8 7 6 6 6 5 5 4 4 4 4 4 4 4 4 4 4 4 4 4 4 5 4 5 5 4 6
4 3 4 4 4 4 4 4 4 4 4 4 4 4 3 5 5 5 6 6 5 5 5 5 5 4 4 4 4 4 4 4 4 5 4 4 4 5 5 6 6 5 5
3 3 5 5 5 4 4 4 4 4 4 4 4 3 3 5 5 5 5 5 5 5 4 5 5 5 5 4 4 4 5 4 4 5 5 4 5 5 5 5 5 6 6
3 3 3 4 4 4 4 4 4 5 5 5 4 4 5 6 5 5 5 5 5 4 4 5 5 4 4 4 4 4 5 5 4 5 5 5 5 5 6 6 5 5 6
3 3 3 3 3 3 5 5 5 5 5 5 5 4 4 5 5 5 5 5 5 5 4 4 5 4 4 4 4 5 5 5 4 4 5 6 6 5 5 6 7 7 7
2 3 3 3 4 4 4 5 5 5 5 5 5 5 5 5 5 5 5 5 5 5 4 4 5 6 6 5 5 5 4 4 5 5 7 7 6 6 6 6 7 7 7
3 3 4 4 4 4 5 5 5 5 5 4 5 5 5 4 5 5 5 5 5 5 6 5 5 5 7 7 6 5 1 0 2 5 6 7 7 7 7 7 7 7 7
3 3 3 4 4 4 4 4 4 4 4 4 4 4 5 5 5 5 5 5 5 5 5 5 6 7 7 6 5 3 1 1 2 4 7 7 7 6 7 6 8 7 7
Wind_Direction
159 152 144 152 168 179 178 170 157 187 302 303 303 286 285 289 286 278 281 279 273 276 275 270 271 284 286 283 275 271 264 259 262 279 283 153 207 258 196 235 232 227 192
162 155 148 145 145 163 161 159 157 166 192 210 267 291 305 318 316 307 298 293 287 289 289 282 279 274 275 281 282 277 273 268 258 260 265 244 230 235 239 247 248 239 232
161 157 149 156 148 143 128 131 152 155 165 187 179 261 301 326 322 311 304 305 310 309 307 302 298 293 288 291 282 280 274 270 257 255 260 257 253 241 238 241 244 251 247
161 159 154 155 148 137 125 116 110 117 119 159 173 249 293 317 316 303 291 296 295 292 299 299 302 309 310 302 283 281 282 281 265 263 264 255 249 240 241 241 240 228 249
168 162 156 153 147 139 135 126 118 110 108 69 49 79 258 267 356 335 302 287 286 284 287 299 324 347 348 325 317 309 290 273 268 265 264 267 256 253 253 258 258 245 240
163 156 149 149 149 146 149 146 128 104 59 60 45 26 2 29 43 14 325 314 299 289 294 295 242 176 300 255 294 307 305 286 286 281 268 268 269 266 273 266 264 251 245
163 159 157 159 157 156 157 143 130 118 96 72 19 324 29 63 61 16 330 306 303 310 306 301 297 11 290 304 244 229 238 242 250 273 282 282 274 269 272 263 260 262 269
168 167 162 163 163 159 155 145 144 140 133 115 300 327 51 85 91 359 308 271 305 302 302 302 305 316 348 318 301 298 288 269 249 249 275 288 297 300 263 266 271 255 246
174 171 169 169 167 166 164 166 170 170 166 200 206 236 229 128 116 281 295 273 270 278 284 307 306 305 15 312 279 281 285 260 204 207 260 281 317 322 304 274 256 252 245
176 172 171 174 177 180 178 184 183 192 202 215 190 219 236 243 144 238 290 284 290 281 250 211 135 317 337 312 280 278 278 288 291 250 224 227 233 221 224 248 261 263 265
176 174 175 180 188 192 187 196 205 214 213 224 209 212 223 235 192 207 285 295 299 291 295 292 83 123 271 285 281 282 292 293 281 272 255 230 218 217 219 226 258 272 272
179 179 183 191 203 188 191 203 209 216 215 213 207 218 214 205 216 187 226 273 301 294 295 316 26 130 259 272 272 281 281 276 267 271 276 269 260 251 244 246 241 252 266
180 182 187 195 204 203 207 208 207 209 228 224 222 221 222 218 181 181 201 234 257 274 303 339 316 275 249 240 226 248 255 257 270 271 277 283 282 282 265 242 233 229 238
187 189 193 200 207 205 217 221 221 219 225 230 235 243 245 237 244 217 211 214 218 233 259 254 237 239 240 254 240 228 241 267 280 281 284 285 280 261 253 253 250 240 240
196 199 203 206 205 211 215 234 241 242 259 260 262 260 260 257 13 17 303 290 299 321 309 273 263 255 246 234 235 246 250 243 248 268 282 280 273 268 266 264 265 259 251
202 207 210 211 209 220 214 211 193 238 156 216 258 270 273 267 196 241 265 274 279 283 276 269 268 268 273 275 270 256 249 257 267 271 273 278 278 276 274 268 268 264 264
214 219 221 219 218 226 227 226 224 205 195 211 226 230 236 244 238 245 254 258 254 238 246 259 265 268 272 275 274 273 271 271 272 267 269 272 272 273 274 272 271 272 269
219 215 223 225 228 233 235 236 235 238 225 216 211 209 212 219 228 237 239 244 242 224 246 259 264 264 264 271 278 279 277 269 261 262 265 269 270 270 272 274 274 281 280
227 226 228 233 234 238 239 241 242 242 246 244 236 201 200 209 220 230 220 239 254 254 255 261 263 264 268 267 271 271 269 266 265 261 259 267 271 273 273 275 277 276 277
231 222 239 244 237 236 240 243 245 245 247 251 250 253 223 222 234 223 220 237 249 256 262 263 262 259 260 262 261 260 260 263 264 261 263 263 265 270 272 275 281 281 277
239 216 215 234 237 238 238 241 244 247 248 250 256 261 266 265 262 255 249 246 249 255 258 263 264 259 252 251 255 260 266 267 268 271 267 265 264 263 267 270 273 277 282
239 241 239 236 236 240 245 244 243 243 244 245 248 237 212 242 255 257 256 257 257 256 257 258 261 263 261 256 253 256 262 267 264 264 267 268 267 265 266 269 274 277 276
247 248 244 238 242 243 248 251 250 250 250 247 246 249 244 252 256 257 261 262 259 259 258 256 257 260 263 264 261 258 259 263 268 270 270 271 273 272 270 270 271 272 272
241 244 247 243 243 242 243 245 247 251 253 250 250 251 253 256 260 262 265 264 260 257 255 253 256 262 265 267 264 256 258 271 275 269 270 275 276 277 275 273 271 271 270
241 241 245 246 249 251 249 251 253 252 252 255 257 258 259 259 263 260 259 260 259 257 257 256 258 258 256 257 265 275 313 335 288 292 273 268 269 273 276 274 274 273 270
247 247 253 253 254 260 259 256 255 259 260 259 261 263 262 260 263 266 262 261 261 259 260 257 259 262 262 259 262 273 179 213 240 273 277 270 270 273 277 274 271 268 266